Terug naar catalogus

STARLINK-30178

ActiefCommunicatieVLEO
NORAD 57447·PAYLOAD·🇺🇸 United States

Gelanceerd Jul 24, 2023 vanaf Cape Canaveral Space Force Station

Loading…

Volgende Passages (komende 24 uur)

TLE

VersSource: CelesTrak SupGP

Epoch: Sep 14, 2026, 22:17 UTC

1 57447C 23105T   26257.92895833  .00032414  00000+0  11745-2 0  2577
2 57447  43.0001 271.3113 0001430 265.1869  11.6803 15.27548773    19

Volg STARLINK-30178 in realtime met AllMySat

Download on the App Store